IZ3TCG-13 Weather Reports


Display with metric or nautical units.
time (UTC)temp
F
wind
direction
speed
MPH
gust
MPH
rain 1hr
in
rain 24hr
in
rain mn
in
humidity
%
barometer
mb
20260508205203 60 0 0.0 0.0 0.00 0.00 0.00 89 1013.2
20260508204803 60 0 0.0 0.0 0.00 0.00 0.00 89 1013.5
20260508204403 61 0 0.0 0.0 0.00 0.00 0.00 88 1013.4
20260508204215 61 0 0.0 0.0 0.00 0.00 0.00 88 1013.3
20260508203603 61 0 0.0 0.0 0.00 0.00 0.00 87 1013.6
20260508203203 61 0 0.0 0.0 0.00 0.00 0.00 86 1013.5
20260508202803 61 0 0.0 0.0 0.00 0.00 0.00 86 1013.5
20260508202404 62 202 0.0 2.0 0.00 0.00 0.00 85 1013.3
20260508202003 62 202 0.0 2.0 0.00 0.00 0.00 85 1013.5
20260508201603 62 202 0.0 2.0 0.00 0.00 0.00 85 1013.1
20260508201203 62 202 0.0 2.0 0.00 0.00 0.00 84 1013.6
20260508200803 62 202 0.0 2.0 0.00 0.00 0.00 83 1013.3
20260508200403 62 0 0.0 0.0 0.00 0.00 0.00 82 1013.3
20260508200004 62 0 0.0 0.0 0.00 0.00 0.00 82 1013.1
20260508195603 62 0 0.0 0.0 0.00 0.00 0.00 81 1013.0
20260508195203 63 180 0.0 2.0 0.00 0.00 0.00 80 1013.1
20260508194803 63 180 0.0 2.0 0.00 0.00 0.00 79 1013.1
20260508194403 63 186 0.0 2.0 0.00 0.00 0.00 79 1012.9
20260508194004 63 192 0.0 2.0 0.00 0.00 0.00 78 1012.9
20260508193603 63 180 0.0 2.0 0.00 0.00 0.00 77 1012.8
20260508193203 63 0 0.0 0.0 0.00 0.00 0.00 78 1012.9
20260508192803 63 0 0.0 0.0 0.00 0.00 0.00 77 1012.8
20260508192405 63 0 0.0 0.0 0.00 0.00 0.00 76 1012.8
20260508192003 63 0 0.0 0.0 0.00 0.00 0.00 77 1012.6
20260508191603 63 0 0.0 0.0 0.00 0.00 0.00 77 1012.9
20260508191203 63 0 0.0 0.0 0.00 0.00 0.00 76 1012.6
20260508191016 64 0 0.0 0.0 0.00 0.00 0.00 76 1012.5
20260508190615 64 0 0.0 0.0 0.00 0.00 0.00 76 1012.6
20260508190004 64 0 0.0 0.0 0.00 0.00 0.00 75 1012.2
20260508185603 64 0 0.0 0.0 0.00 0.00 0.00 75 1012.5
20260508185203 64 0 0.0 0.0 0.00 0.00 0.00 74 1012.4
20260508185017 64 225 0.0 2.0 0.00 0.00 0.00 74 1012.3
20260508184403 65 225 0.0 2.0 0.00 0.00 0.00 72 1012.4
20260508184216 65 225 0.0 2.0 0.00 0.00 0.00 72 1012.1
20260508183603 65 225 0.0 2.0 0.00 0.00 0.00 72 1012.2
20260508183203 65 225 0.0 2.0 0.00 0.00 0.00 71 1012.2
20260508182803 65 0 0.0 0.0 0.00 0.00 0.00 71 1012.2
20260508182614 66 0 0.0 0.0 0.00 0.00 0.00 71 1012.0
20260508182003 66 0 0.0 0.0 0.00 0.00 0.00 70 1012.0
20260508181812 67 0 0.0 0.0 0.00 0.00 0.00 70 1012.1
20260508181203 67 191 0.0 2.0 0.00 0.00 0.00 70 1012.0
20260508181016 67 191 0.0 2.0 0.00 0.00 0.00 69 1012.0
20260508180403 67 112 0.0 2.0 0.00 0.00 0.00 69 1011.9
20260508180004 67 112 0.0 2.0 0.00 0.00 0.00 68 1011.8
20260508175603 68 112 0.0 2.0 0.00 0.00 0.00 67 1011.8
20260508175203 68 137 0.0 2.0 0.00 0.00 0.00 67 1011.7
20260508174803 68 156 0.0 2.0 0.00 0.00 0.00 67 1011.7
20260508174618 68 172 0.0 2.0 0.00 0.00 0.00 65 1011.7
20260508174003 69 170 1.0 4.0 0.00 0.00 0.00 65 1011.7
20260508173603 69 166 0.0 4.0 0.00 0.00 0.00 64 1011.6
20260508173203 69 174 1.0 4.0 0.00 0.00 0.00 63 1011.7
20260508172804 69 189 0.0 4.0 0.00 0.00 0.00 64 1011.6
20260508172614 69 197 2.0 4.0 0.00 0.00 0.00 62 1011.4
20260508172003 69 193 2.0 4.0 0.00 0.00 0.00 62 1011.7
20260508171603 69 153 1.0 2.0 0.00 0.00 0.00 64 1011.6
20260508171204 70 184 1.0 2.0 0.00 0.00 0.00 65 1011.6
20260508170803 70 164 0.0 2.0 0.00 0.00 0.00 64 1011.5
20260508170403 69 128 0.0 6.0 0.00 0.00 0.00 65 1011.5
20260508170003 69 130 0.0 6.0 0.00 0.00 0.00 65 1011.5
20260508165603 69 118 0.0 6.0 0.00 0.00 0.00 64 1011.6
20260508165414 69 121 1.0 4.0 0.00 0.00 0.00 65 1011.7
20260508164804 70 139 1.0 4.0 0.00 0.00 0.00 64 1011.4
20260508164403 70 154 0.0 4.0 0.00 0.00 0.00 63 1011.7
20260508164008 71 157 0.0 2.0 0.00 0.00 0.00 62 1011.6
20260508163604 71 151 0.0 2.0 0.00 0.00 0.00 61 1011.9
20260508163203 71 116 0.0 2.0 0.00 0.00 0.00 60 1011.6
20260508163016 71 123 0.0 4.0 0.00 0.00 0.00 57 1011.6
20260508162403 71 104 0.0 4.0 0.00 0.00 0.00 58 1011.6
20260508162004 71 83 2.0 4.0 0.00 0.00 0.00 58 1011.4
20260508161604 72 73 1.0 2.0 0.00 0.00 0.00 57 1011.5
20260508161203 72 138 0.0 2.0 0.00 0.00 0.00 57 1011.6
20260508160804 72 147 0.0 4.0 0.00 0.00 0.00 60 1011.3
20260508160403 71 94 1.0 4.0 0.00 0.00 0.00 55 1011.6
20260508160004 71 89 1.0 7.0 0.00 0.00 0.00 61 1011.5
20260508155816 71 83 2.0 7.0 0.00 0.00 0.00 59 1011.5
20260508155203 71 90 3.0 7.0 0.00 0.00 0.00 59 1011.4
20260508154805 71 96 2.0 6.0 0.00 0.00 0.00 59 1011.6
20260508154404 71 83 1.0 8.0 0.00 0.00 0.00 59 1011.4
20260508154004 71 78 0.0 8.0 0.00 0.00 0.00 60 1011.6
20260508153603 71 80 4.0 7.0 0.00 0.00 0.00 58 1011.4
20260508153204 71 89 1.0 7.0 0.00 0.00 0.00 58 1011.5
20260508152803 72 83 0.0 4.0 0.00 0.00 0.00 57 1011.4
20260508152616 72 76 0.0 6.0 0.00 0.00 0.00 60 1011.4
20260508152004 71 78 1.0 6.0 0.00 0.00 0.00 61 1011.6
20260508151604 72 91 2.0 6.0 0.00 0.00 0.00 58 1011.3
20260508151203 72 82 1.0 4.0 0.00 0.00 0.00 59 1011.6
20260508151018 72 81 0.0 4.0 0.00 0.00 0.00 58 1011.6
20260508150403 73 86 2.0 4.0 0.00 0.00 0.00 60 1011.3
20260508150004 74 80 2.0 4.0 0.00 0.00 0.00 57 1011.6
20260508145603 75 86 0.0 4.0 0.00 0.00 0.00 59 1011.9
20260508145416 74 94 0.0 4.0 0.00 0.00 0.00 57 1011.6
20260508144803 73 96 0.0 7.0 0.00 0.00 0.00 62 1011.8
20260508144403 73 104 0.0 7.0 0.00 0.00 0.00 59 1011.8
20260508144003 73 108 3.0 7.0 0.00 0.00 0.00 58 1011.6
20260508143604 74 87 2.0 6.0 0.00 0.00 0.00 56 1011.5
20260508143203 74 81 2.0 8.0 0.00 0.00 0.00 58 1011.8
20260508142804 73 82 1.0 8.0 0.00 0.00 0.00 59 1011.6
20260508142403 74 85 4.0 8.0 0.00 0.00 0.00 58 1011.6
20260508142004 73 90 1.0 9.0 0.00 0.00 0.00 58 1011.7
20260508141603 73 91 3.0 9.0 0.00 0.00 0.00 58 1011.7
20260508141203 74 85 2.0 9.0 0.00 0.00 0.00 59 1011.7
20260508140804 74 85 0.0 8.0 0.00 0.00 0.00 56 1011.6
20260508140403 73 93 4.0 7.0 0.00 0.00 0.00 56 1011.7
20260508140004 73 86 2.0 9.0 0.00 0.00 0.00 58 1011.9
20260508135603 73 79 4.0 9.0 0.00 0.00 0.00 60 1011.9
20260508135203 74 90 2.0 6.0 0.00 0.00 0.00 58 1011.6
20260508134804 74 85 2.0 6.0 0.00 0.00 0.00 57 1011.8
20260508134615 74 92 2.0 6.0 0.00 0.00 0.00 58 1012.0
20260508134003 75 107 2.0 7.0 0.00 0.00 0.00 59 1011.9
20260508133603 75 101 2.0 7.0 0.00 0.00 0.00 56 1012.2
20260508133203 74 107 2.0 9.0 0.00 0.00 0.00 61 1012.1
20260508132804 73 98 3.0 9.0 0.00 0.00 0.00 58 1012.1
20260508132403 73 100 2.0 8.0 0.00 0.00 0.00 60 1012.0
20260508132004 74 95 2.0 8.0 0.00 0.00 0.00 60 1012.0
20260508131604 74 103 1.0 7.0 0.00 0.00 0.00 60 1012.0
20260508131204 74 97 2.0 6.0 0.00 0.00 0.00 62 1012.0
20260508130804 74 102 2.0 8.0 0.00 0.00 0.00 62 1012.1
20260508130403 74 101 2.0 8.0 0.00 0.00 0.00 64 1012.2
20260508130004 74 103 3.0 8.0 0.00 0.00 0.00 66 1012.2
20260508125603 74 93 2.0 6.0 0.00 0.00 0.00 64 1012.1
20260508125203 74 89 2.0 6.0 0.00 0.00 0.00 62 1012.1
20260508124803 74 90 2.0 6.0 0.00 0.00 0.00 60 1012.1
20260508124404 75 116 1.0 4.0 0.00 0.00 0.00 57 1012.2
20260508124004 75 105 1.0 7.0 0.00 0.00 0.00 57 1012.2
20260508123603 74 94 0.0 7.0 0.00 0.00 0.00 57 1012.4
20260508123203 73 95 3.0 7.0 0.00 0.00 0.00 58 1012.3
20260508122803 74 86 2.0 6.0 0.00 0.00 0.00 57 1012.2
20260508122403 75 86 2.0 6.0 0.00 0.00 0.00 57 1012.3
20260508122004 75 90 2.0 4.0 0.00 0.00 0.00 54 1012.3
20260508121603 75 122 2.0 2.0 0.00 0.00 0.00 56 1012.5
20260508121203 76 121 1.0 4.0 0.00 0.00 0.00 52 1012.5
20260508121015 75 119 1.0 4.0 0.00 0.00 0.00 55 1012.6
20260508120403 74 96 3.0 6.0 0.00 0.00 0.00 57 1012.5
20260508120214 74 95 2.0 6.0 0.00 0.00 0.00 58 1012.5
20260508115603 74 87 2.0 6.0 0.00 0.00 0.00 59 1012.6
20260508115204 74 72 2.0 6.0 0.00 0.00 0.00 56 1012.4
20260508115017 75 53 3.0 6.0 0.00 0.00 0.00 56 1012.5
20260508114404 76 18 0.0 4.0 0.00 0.00 0.00 52 1012.6
20260508114003 77 87 2.0 4.0 0.00 0.00 0.00 54 1012.4
20260508113603 77 275 1.0 4.0 0.00 0.00 0.00 56 1012.3
20260508113204 76 350 1.0 4.0 0.00 0.00 0.00 54 1012.4
20260508113014 75 2 1.0 6.0 0.00 0.00 0.00 54 1012.5
20260508112404 74 2 1.0 7.0 0.00 0.00 0.00 60 1012.6
20260508112003 75 360 2.0 7.0 0.00 0.00 0.00 55 1012.5
20260508111603 77 27 4.0 7.0 0.00 0.00 0.00 58 1012.5
20260508111204 75 32 0.0 6.0 0.00 0.00 0.00 55 1012.6
20260508110804 74 28 1.0 6.0 0.00 0.00 0.00 61 1012.6
20260508110404 75 28 2.0 6.0 0.00 0.00 0.00 59 1012.6
20260508110004 77 60 3.0 6.0 0.00 0.00 0.00 60 1012.7
20260508105604 74 58 1.0 6.0 0.00 0.00 0.00 62 1012.8
20260508105203 75 85 2.0 6.0 0.00 0.00 0.00 62 1012.9
20260508104803 74 93 0.0 8.0 0.00 0.00 0.00 61 1012.8
20260508104404 72 106 2.0 8.0 0.00 0.00 0.00 69 1013.0
20260508104004 73 106 5.0 8.0 0.00 0.00 0.00 68 1013.0
20260508103603 73 107 2.0 8.0 0.00 0.00 0.00 67 1013.1
20260508103203 73 100 1.0 7.0 0.00 0.00 0.00 65 1012.8
20260508102803 73 88 2.0 6.0 0.00 0.00 0.00 62 1013.0
20260508102404 73 99 1.0 6.0 0.00 0.00 0.00 64 1012.9
20260508102004 73 94 3.0 8.0 0.00 0.00 0.00 65 1012.9
20260508101603 72 97 2.0 8.0 0.00 0.00 0.00 62 1013.2
20260508101203 73 86 3.0 7.0 0.00 0.00 0.00 64 1013.0
20260508100803 72 93 1.0 7.0 0.00 0.00 0.00 63 1013.2
20260508100403 72 96 2.0 7.0 0.00 0.00 0.00 61 1013.1
20260508095604 74 69 2.0 6.0 0.00 0.00 0.00 65 1016.1
20260508095204 74 55 3.0 7.0 0.00 0.00 0.00 63 1016.2
20260508094804 73 73 2.0 7.0 0.00 0.00 0.00 63 1016.2
20260508094404 72 108 2.0 8.0 0.00 0.00 0.00 65 1016.1
20260508094004 71 100 2.0 8.0 0.00 0.00 0.00 62 1016.1
20260508093603 70 97 2.0 8.0 0.00 0.00 0.00 67 1016.2
20260508093414 69 85 1.0 7.0 0.00 0.00 0.00 71 1016.3
20260508092803 72 83 2.0 6.0 0.00 0.00 0.00 66 1016.4
20260508092403 74 17 2.0 4.0 0.00 0.00 0.00 64 1016.2
20260508092003 71 347 2.0 4.0 0.00 0.00 0.00 71 1016.3
20260508091817 71 342 2.0 4.0 0.00 0.00 0.00 67 1016.2
20260508091204 72 347 2.0 4.0 0.00 0.00 0.00 66 1016.2
20260508091016 72 357 2.0 4.0 0.00 0.00 0.00 68 1016.2
20260508090403 72 13 1.0 4.0 0.00 0.00 0.00 68 1016.2
20260508090004 71 14 2.0 6.0 0.00 0.00 0.00 71 1016.3
20260508085603 70 7 2.0 6.0 0.00 0.00 0.00 72 1016.3
20260508085418 69 6 2.0 6.0 0.00 0.00 0.00 72 1016.4
20260508084804 70 346 1.0 6.0 0.00 0.00 0.00 73 1016.2
20260508084404 69 347 2.0 6.0 0.00 0.00 0.00 74 1016.1
20260508084216 69 346 1.0 6.0 0.00 0.00 0.00 74 1016.0
20260508083603 69 350 1.0 6.0 0.00 0.00 0.00 75 1016.4
20260508083204 69 356 2.0 6.0 0.00 0.00 0.00 74 1016.1
20260508082804 69 13 3.0 6.0 0.00 0.00 0.00 76 1016.1
20260508082404 67 34 1.0 6.0 0.00 0.00 0.00 76 1016.1
20260508082003 67 34 1.0 6.0 0.00 0.00 0.00 78 1016.5
20260508081603 68 57 3.0 6.0 0.00 0.00 0.00 77 1016.2
20260508081417 68 46 2.0 4.0 0.00 0.00 0.00 77 1016.4
20260508080803 67 64 2.0 7.0 0.00 0.00 0.00 79 1016.1
20260508080403 66 76 2.0 7.0 0.00 0.00 0.00 81 1016.1
20260508080004 67 77 2.0 6.0 0.00 0.00 0.00 80 1016.0
20260508075603 67 75 2.0 8.0 0.00 0.00 0.00 80 1015.9
20260508075204 67 76 3.0 8.0 0.00 0.00 0.00 79 1016.0
20260508074803 66 79 5.0 8.0 0.00 0.00 0.00 80 1016.0
20260508074617 66 73 5.0 8.0 0.00 0.00 0.00 79 1016.1
20260508074004 67 33 2.0 7.0 0.00 0.00 0.00 80 1016.0
20260508073604 67 22 0.0 4.0 0.00 0.00 0.00 80 1015.8
20260508073204 66 18 0.0 4.0 0.00 0.00 0.00 82 1016.2
20260508072804 65 22 0.0 4.0 0.00 0.00 0.00 82 1016.0
20260508072403 65 20 2.0 4.0 0.00 0.00 0.00 84 1016.0
20260508072004 65 21 2.0 6.0 0.00 0.00 0.00 83 1016.0
20260508071603 65 46 1.0 6.0 0.00 0.00 0.00 85 1016.0
20260508071203 65 36 3.0 6.0 0.00 0.00 0.00 86 1016.0
20260508071017 65 39 1.0 6.0 0.00 0.00 0.00 86 1015.9
20260508070403 64 51 2.0 6.0 0.00 0.00 0.00 86 1016.0
20260508070004 64 71 1.0 6.0 0.00 0.00 0.00 86 1016.1
20260508065603 64 71 4.0 6.0 0.00 0.00 0.00 87 1015.9
20260508065204 64 49 2.0 6.0 0.00 0.00 0.00 88 1016.0
20260508064803 64 32 2.0 6.0 0.00 0.00 0.00 87 1016.1
20260508064403 63 27 3.0 6.0 0.00 0.00 0.00 88 1016.1
20260508064004 63 21 2.0 4.0 0.00 0.00 0.00 89 1016.1
20260508063603 62 20 2.0 6.0 0.00 0.00 0.00 89 1015.9
20260508063204 62 22 0.0 6.0 0.00 0.00 0.00 89 1015.8
20260508062804 62 25 2.0 6.0 0.00 0.00 0.00 89 1016.1
20260508062615 62 23 1.0 6.0 0.00 0.00 0.00 89 1015.9
20260508062003 62 47 1.0 2.0 0.00 0.00 0.00 89 1015.9
20260508061814 62 49 1.0 2.0 0.00 0.00 0.00 90 1015.8
20260508061418 61 30 1.0 4.0 0.00 0.00 0.00 91 1015.8
20260508060804 60 11 0.0 4.0 0.00 0.00 0.00 91 1015.7
20260508060404 60 19 2.0 4.0 0.00 0.00 0.00 91 1015.5
20260508060004 60 25 1.0 4.0 0.00 0.00 0.00 91 1015.5
20260508055603 60 22 0.0 4.0 0.00 0.00 0.00 91 1015.5
20260508055204 59 8 1.0 4.0 0.00 0.00 0.00 91 1015.5
20260508055014 59 353 1.0 2.0 0.00 0.00 0.00 91 1015.6
20260508054403 59 336 0.0 2.0 0.00 0.00 0.00 91 1015.6
20260508054003 59 356 1.0 4.0 0.00 0.00 0.00 91 1015.7
20260508053603 59 6 0.0 4.0 0.00 0.00 0.00 92 1015.6
20260508053417 59 11 0.0 4.0 0.00 0.00 0.00 92 1015.5
20260508052804 58 351 0.0 4.0 0.00 0.00 0.00 92 1015.6
20260508052404 58 337 0.0 4.0 0.00 0.00 0.00 92 1015.3
20260508052004 58 340 0.0 4.0 0.00 0.00 0.00 93 1015.5
20260508051604 57 356 0.0 4.0 0.00 0.00 0.00 93 1015.3
20260508051203 57 355 2.0 4.0 0.00 0.00 0.00 93 1015.6
20260508050803 57 2 2.0 4.0 0.00 0.00 0.00 93 1015.6
20260508050403 57 355 2.0 4.0 0.00 0.00 0.00 94 1015.3
20260508050217 56 354 2.0 4.0 0.00 0.00 0.00 94 1015.4
20260508045604 56 355 1.0 2.0 0.00 0.00 0.00 94 1015.4
20260508045203 56 354 0.0 2.0 0.00 0.00 0.00 94 1015.4
20260508044803 56 339 0.0 2.0 0.00 0.00 0.00 94 1015.2
20260508044403 56 335 0.0 4.0 0.00 0.00 0.00 94 1015.2
20260508044003 56 337 1.0 4.0 0.00 0.00 0.00 94 1015.1
20260508043603 56 340 1.0 4.0 0.00 0.00 0.00 94 1015.3
20260508043203 55 339 0.0 2.0 0.00 0.00 0.00 95 1015.3
20260508042803 55 327 0.0 2.0 0.00 0.00 0.00 95 1015.1
20260508042403 55 341 0.0 2.0 0.00 0.00 0.00 95 1015.1
20260508042004 55 351 0.0 2.0 0.00 0.00 0.00 95 1015.1
20260508041605 55 360 1.0 2.0 0.00 0.00 0.00 95 1015.0
20260508041204 55 8 0.0 2.0 0.00 0.00 0.00 94 1014.9
20260508040803 55 3 0.0 4.0 0.00 0.00 0.00 94 1015.0
20260508040403 55 353 1.0 4.0 0.00 0.00 0.00 94 1014.9
20260508040004 55 350 2.0 4.0 0.00 0.00 0.00 94 1014.9
20260508035603 55 353 0.0 4.0 0.00 0.00 0.00 94 1014.9
20260508035203 55 355 2.0 4.0 0.00 0.00 0.00 94 1014.9
20260508034804 54 351 2.0 4.0 0.00 0.00 0.00 94 1015.0
20260508034615 54 338 1.0 4.0 0.00 0.00 0.00 94 1014.8
20260508034003 55 328 1.0 4.0 0.00 0.00 0.00 94 1015.0
20260508033603 55 342 2.0 4.0 0.00 0.00 0.00 94 1014.8
20260508033203 55 351 1.0 4.0 0.00 0.00 0.00 94 1014.8
20260508032804 55 352 2.0 4.0 0.00 0.00 0.00 95 1014.9
20260508032403 55 342 0.0 4.0 0.00 0.00 0.00 95 1015.1
20260508032004 55 329 1.0 4.0 0.00 0.00 0.00 95 1015.0
20260508031815 55 332 2.0 4.0 0.00 0.00 0.00 95 1015.0
20260508031204 55 337 1.0 4.0 0.00 0.00 0.00 95 1015.0
20260508030803 55 349 2.0 4.0 0.00 0.00 0.00 95 1015.0
20260508030404 55 360 1.0 4.0 0.00 0.00 0.00 95 1014.8
20260508030218 55 354 1.0 4.0 0.00 0.00 0.00 95 1014.8
20260508025603 55 339 1.0 4.0 0.00 0.00 0.00 95 1015.0
20260508025203 56 325 1.0 4.0 0.00 0.00 0.00 95 1014.9
20260508024803 56 323 0.0 4.0 0.00 0.00 0.00 95 1015.1
20260508024403 56 332 2.0 4.0 0.00 0.00 0.00 95 1014.8
20260508024003 56 332 1.0 4.0 0.00 0.00 0.00 96 1014.9
20260508023603 56 336 2.0 4.0 0.00 0.00 0.00 96 1015.0
20260508023414 56 340 2.0 4.0 0.00 0.00 0.00 96 1015.1
20260508022804 56 2 2.0 4.0 0.00 0.00 0.00 96 1015.4
20260508022403 56 357 1.0 4.0 0.00 0.00 0.00 96 1015.2
20260508022003 56 359 0.0 4.0 0.00 0.00 0.00 96 1015.1
20260508021603 56 349 0.0 4.0 0.00 0.00 0.00 96 1015.2
20260508021204 57 342 3.0 6.0 0.00 0.00 0.00 96 1015.3
20260508020803 57 353 1.0 6.0 0.00 0.00 0.00 96 1015.0
20260508020403 57 5 0.0 6.0 0.00 0.00 0.00 96 1015.1
20260508020004 57 3 1.0 4.0 0.00 0.00 0.00 96 1015.4
20260508015604 57 360 0.0 4.0 0.00 0.00 0.00 96 1015.2
20260508015417 57 356 2.0 4.0 0.00 0.00 0.00 96 1015.4
20260508014803 57 9 0.0 4.0 0.00 0.00 0.00 96 1015.1
20260508014403 57 360 1.0 4.0 0.00 0.00 0.00 96 1015.1
20260508014004 57 351 2.0 4.0 0.00 0.00 0.00 96 1015.0
20260508013604 58 345 2.0 4.0 0.00 0.00 0.00 96 1015.2
20260508013204 58 347 1.0 4.0 0.00 0.00 0.00 95 1015.2
20260508013014 58 349 0.0 4.0 0.00 0.00 0.00 95 1015.0
20260508012613 58 346 1.0 4.0 0.00 0.00 0.00 95 1015.2
20260508012003 58 2 0.0 4.0 0.00 0.00 0.00 95 1015.4
20260508011603 58 4 0.0 4.0 0.00 0.00 0.00 95 1015.2
20260508011203 58 8 0.0 4.0 0.00 0.00 0.00 94 1015.2
20260508010804 58 4 0.0 4.0 0.00 0.00 0.00 94 1015.3
20260508010404 58 3 2.0 4.0 0.00 0.00 0.00 94 1015.3
20260508010004 59 7 1.0 4.0 0.00 0.00 0.00 94 1015.4
20260508005814 59 5 0.0 6.0 0.00 0.00 0.00 94 1015.2
20260508005204 59 21 1.0 6.0 0.00 0.00 0.00 94 1015.4
20260508004803 59 28 1.0 4.0 0.00 0.00 0.00 94 1015.3
20260508004403 59 32 2.0 4.0 0.00 0.00 0.00 93 1015.3
20260508004004 59 32 1.0 4.0 0.00 0.00 0.00 93 1015.3
20260508003603 59 32 1.0 4.0 0.00 0.00 0.00 93 1015.4
20260508003204 59 21 2.0 7.0 0.00 0.00 0.00 93 1015.4
20260508002804 59 20 2.0 7.0 0.00 0.00 0.00 93 1015.3
20260508002404 59 9 4.0 7.0 0.00 0.00 0.00 93 1015.0
20260508002003 59 350 1.0 4.0 0.00 0.00 0.00 93 1015.1
20260508001603 59 350 0.0 4.0 0.00 0.00 0.00 93 1015.4
20260508001204 59 347 2.0 4.0 0.00 0.00 0.00 93 1015.2
20260508000804 59 340 2.0 4.0 0.00 0.00 0.00 92 1015.2
20260508000405 59 350 1.0 4.0 0.00 0.00 0.00 92 1015.4
20260508000004 59 359 1.0 6.0 0.00 0.00 0.00 92 1015.5
20260507235814 59 3 2.0 6.0 0.00 0.00 0.00 92 1015.1
20260507235203 59 1 2.0 8.0 0.00 0.00 0.00 91 1015.3
20260507234804 59 11 2.0 8.0 0.00 0.00 0.00 91 1015.3
20260507234404 59 11 3.0 8.0 0.00 0.00 0.00 91 1015.2
20260507234217 59 14 4.0 8.0 0.00 0.00 0.00 90 1015.3
20260507233604 59 357 2.0 8.0 0.00 0.00 0.00 90 1015.4
20260507233203 59 357 4.0 8.0 0.00 0.00 0.00 90 1015.6
20260507232804 59 350 1.0 4.0 0.00 0.00 0.00 90 1015.4
20260507232614 59 351 2.0 4.0 0.00 0.00 0.00 90 1015.5
20260507232004 59 355 2.0 4.0 0.00 0.00 0.00 90 1015.5
20260507231603 59 349 2.0 4.0 0.00 0.00 0.00 90 1015.5
20260507231203 59 347 2.0 4.0 0.00 0.00 0.00 90 1015.3
20260507230804 59 347 0.0 4.0 0.00 0.00 0.00 91 1015.6
20260507230403 59 350 2.0 4.0 0.00 0.00 0.00 91 1015.4
20260507230004 59 354 2.0 4.0 0.00 0.00 0.00 91 1015.1
20260507225603 59 2 2.0 4.0 0.00 0.00 0.00 91 1015.1
20260507225414 59 3 1.0 4.0 0.00 0.00 0.00 91 1015.1
20260507224803 59 3 2.0 4.0 0.00 0.00 0.00 91 1015.2
20260507224403 59 357 0.0 4.0 0.00 0.00 0.00 91 1015.3
20260507224004 59 357 0.0 4.0 0.00 0.00 0.00 91 1015.4
20260507223604 59 360 1.0 4.0 0.00 0.00 0.00 91 1015.5
20260507223204 59 11 0.0 4.0 0.00 0.00 0.00 91 1015.4
20260507222804 59 2 1.0 4.0 0.00 0.00 0.00 91 1015.5
20260507222403 59 357 2.0 4.0 0.00 0.00 0.00 91 1015.5
20260507222004 59 14 0.0 4.0 0.00 0.00 0.00 90 1015.2
20260507221814 59 15 1.0 4.0 0.00 0.00 0.00 90 1015.3
20260507221204 59 2 2.0 4.0 0.00 0.00 0.00 90 1015.2
20260507220804 59 356 2.0 4.0 0.00 0.00 0.00 90 1015.1
20260507220403 59 6 0.0 4.0 0.00 0.00 0.00 89 1015.1
20260507220007 60 14 0.0 4.0 0.00 0.00 0.00 89 1015.4
20260507215603 60 12 1.0 4.0 0.00 0.00 0.00 89 1015.1
20260507215204 60 9 2.0 4.0 0.00 0.00 0.00 89 1015.1
20260507214803 60 5 1.0 2.0 0.00 0.00 0.00 88 1015.4
20260507214614 60 7 0.0 2.0 0.00 0.00 0.00 88 1015.4
20260507214003 60 4 1.0 4.0 0.00 0.00 0.00 88 1015.0
20260507213812 60 2 1.0 4.0 0.00 0.00 0.00 87 1015.1
20260507213204 60 15 2.0 4.0 0.00 0.00 0.00 87 1014.8
20260507212804 60 22 2.0 4.0 0.00 0.00 0.00 86 1015.2
20260507212404 60 13 1.0 4.0 0.00 0.00 0.00 86 1015.1
20260507212004 60 3 2.0 4.0 0.00 0.00 0.00 86 1014.9
20260507211604 60 360 1.0 4.0 0.00 0.00 0.00 85 1015.0
20260507211414 61 359 0.0 4.0 0.00 0.00 0.00 85 1015.0
20260507210804 61 347 1.0 4.0 0.00 0.00 0.00 84 1015.1
20260507210618 61 339 1.0 4.0 0.00 0.00 0.00 84 1015.1
20260507210005 61 331 0.0 4.0 0.00 0.00 0.00 85 1015.2
20260507205603 60 328 1.0 4.0 0.00 0.00 0.00 85 1015.0